MDT,Max TemperatureF,Mean TemperatureF,Min TemperatureF,Max Dew PointF,MeanDew PointF,Min DewpointF,Max Humidity, Mean Humidity, Min Humidity, Max Sea Level PressureIn, Mean Sea Level PressureIn, Min Sea Level PressureIn, Max VisibilityMiles, Mean VisibilityMiles, Min VisibilityMiles, Max Wind SpeedMPH, Mean Wind SpeedMPH, Max Gust SpeedMPH,PrecipitationIn, CloudCover, Events, WindDirDegrees
2013-3-1,52,36,19,18,15,12,71,46,21,30.43,30.32,30.24,10,10,10,10,4,13,0.00,0,,278
2013-3-2,66,43,20,22,18,15,81,49,16,30.38,30.21,30.03,10,10,10,15,5,18,0.00,0,,291
2013-3-3,71,49,26,25,20,12,75,44,12,29.99,29.72,29.55,10,10,10,33,12,39,0.00,0,,288
2013-3-4,51,33,14,27,24,19,92,63,33,30.29,29.89,29.54,10,7,0,45,13,52,0.09,5,Fog-Snow,28
2013-3-5,42,23,4,25,17,2,92,72,51,30.49,30.35,30.24,10,10,9,10,3,13,0.00,0,,69
2013-3-6,56,39,22,29,25,20,88,60,32,30.23,30.01,29.84,10,10,10,13,4,15,0.00,0,,80
2013-3-7,71,47,23,27,18,5,88,48,8,29.98,29.86,29.77,10,10,9,16,6,23,0.00,0,,51
2013-3-8,64,46,27,28,25,21,75,48,20,29.85,29.70,29.48,10,10,10,22,8,28,0.00,1,,143
2013-3-9,45,39,32,34,26,13,78,60,42,30.06,29.70,29.48,10,9,4,41,21,49,0.01,5,Rain,357
2013-3-10,49,37,25,16,12,5,63,40,17,30.14,30.09,30.04,10,10,10,32,13,44,0.00,1,,349
2013-3-11,62,40,18,28,16,8,73,43,12,30.12,29.98,29.83,10,10,9,30,9,35,0.00,0,,67
2013-3-12,43,36,28,29,26,23,78,64,50,30.37,30.26,30.11,10,10,10,15,5,20,T,7,,128
2013-3-13,67,45,22,28,21,17,84,50,15,30.31,30.23,30.15,10,10,7,16,4,22,0.00,0,,138
2013-3-14,74,52,29,24,19,14,59,35,10,30.30,30.15,30.05,10,10,9,17,6,21,0.00,0,,166
2013-3-15,80,57,34,22,14,4,48,27,6,30.04,29.86,29.72,10,10,7,33,13,44,0.00,0,,287
2013-3-16,57,48,38,29,25,18,59,45,31,29.99,29.86,29.77,10,10,9,18,8,22,T,1,Rain,127
2013-3-17,68,47,25,27,19,8,75,43,11,29.81,29.65,29.42,10,9,2,46,13,58,0.00,1,,312
2013-3-18,59,40,21,15,6,2,46,28,10,29.98,29.87,29.75,10,10,5,35,11,43,0.00,0,,297
2013-3-19,52,39,25,11,6,2,43,30,16,30.28,30.09,29.89,10,10,10,18,6,24,0.00,0,,132
2013-3-20,53,35,17,17,13,6,67,46,24,30.35,30.07,29.74,10,10,10,12,4,15,0.00,0,,41
2013-3-21,68,49,29,33,23,13,82,47,12,29.86,29.61,29.41,10,10,9,38,11,45,0.00,3,,66
2013-3-22,54,42,29,32,25,18,92,59,26,29.89,29.76,29.53,10,10,6,48,15,59,0.02,6,,119
2013-3-23,30,24,17,27,19,8,92,74,55,30.30,29.93,29.78,10,4,0,48,24,56,0.07,8,Fog-Snow,7
2013-3-24,36,21,5,21,13,1,92,65,38,30.32,30.20,30.04,10,9,1,21,6,25,T,5,Snow,17
2013-3-25,39,27,15,20,14,8,92,62,32,30.39,30.30,30.21,10,8,2,14,5,20,0.01,4,Snow,121
2013-3-26,58,35,12,21,15,7,73,48,22,30.35,30.09,29.90,10,10,10,18,6,24,0.00,0,,60
2013-3-27,61,42,23,26,22,17,75,49,22,30.08,30.02,29.95,10,10,9,21,7,25,0.00,1,,117
2013-3-28,70,50,30,28,24,16,72,43,14,30.09,30.04,29.93,10,10,9,18,6,21,0.00,1,,62
2013-3-29,71,51,30,32,24,17,75,45,14,30.11,30.01,29.90,10,10,1,36,5,46,0.00,2,,341
2013-3-30,73,53,32,36,26,21,70,43,15,30.09,29.98,29.84,10,10,10,40,10,48,0.00,2,,33
2013-3-31,73,54,34,34,22,2,70,38,6,30.12,29.94,29.75,10,10,10,17,7,21,0.00,2,,120